Location: Ferchesar
(52.6477°N, 12.4298°E)
Time: 10:09:05
(UTC+01:00)

Tiros 1 despin weight - Pass Details

Date: 12 December 2021
Orbit: 592 x 641 km, 48.2° (Epoch: 19 January)

Event Time Altitude Azimuth Distance (km) Brightness Sun altitude
Rises 11:46:45 0° 245° (WSW) 2,856 ? 14.1°
Reaches altitude 10° 11:49:08 10° 238° (WSW) 1,946 ? 14.2°
Maximum altitude 11:53:20 42° 168° (SSE) 860 ? 14.2°
Drops below altitude 10° 11:57:30 10° 98° (E) 1,929 ? 14.2°
Sets 11:59:51 0° 91° (E) 2,828 ? 14.2°
